When you browse on this site, cookies collect data to enhance your experience and personalize the content and advertising you see.
Visit our Privacy Policy to learn more. By continuing to use the site, you agree to this use of cookies and data.
  • In Sweden
  • List of Countries
  • For 7 days
  • Water Temperature
  • Satellite Maps
  • Weather Map
  • Weather Widgets
  • user-avatar
    Login

    Hourly Weather Leschinovo

    Today, 26 April, Friday

    Time Temperature Precipitation Wind Pressure Humidity
    00:00 +15°C° 0 mm 2 mps 749 mmHg 58%
    01:00 +14°C° 0 mm 2 mps 749 mmHg 60%
    02:00 +13°C° 0 mm 2 mps 750 mmHg 62%
    03:00 +13°C° 0 mm 1 mps 749 mmHg 65%
    04:00 +13°C° 0 mm 2 mps 749 mmHg 66%
    05:00 +13°C° 0 mm 2 mps 749 mmHg 67%
    06:00 +13°C° 0 mm 2 mps 750 mmHg 68%
    07:00 +15°C° 0 mm 2 mps 750 mmHg 62%
    08:00 +16°C° 0 mm 2 mps 750 mmHg 56%
    09:00 +19°C° 0 mm 3 mps 750 mmHg 49%
    10:00 +20°C° 0 mm 3 mps 750 mmHg 46%
    11:00 +20°C° 0 mm 3 mps 750 mmHg 42%
    12:00 +21°C° 0 mm 3 mps 750 mmHg 38%
    13:00 +21°C° 0 mm 3 mps 750 mmHg 37%
    14:00 +21°C° 0 mm 3 mps 750 mmHg 36%
    15:00 +21°C° 0 mm 3 mps 750 mmHg 35%
    16:00 +21°C° 0 mm 2 mps 750 mmHg 39%
    17:00 +20°C° 0 mm 2 mps 750 mmHg 42%
    18:00 +20°C° 0 mm 1 mps 749 mmHg 45%
    19:00 +18°C° 0 mm 2 mps 749 mmHg 47%
    20:00 +17°C° 0 mm 2 mps 750 mmHg 49%
    21:00 +16°C° 0 mm 2 mps 750 mmHg 50%
    22:00 +15°C° 0 mm 2 mps 749 mmHg 52%
    23:00 +14°C° 0 mm 2 mps 749 mmHg 55%

    Tomorrow, 27 April, Saturday

    Time Temperature Precipitation Wind Pressure Humidity
    00:00 +13°C° 0 mm 2 mps 749 mmHg 57%
    01:00 +13°C° 0 mm 2 mps 749 mmHg 58%
    02:00 +13°C° 0 mm 2 mps 749 mmHg 58%
    03:00 +13°C° 0 mm 2 mps 749 mmHg 59%
    04:00 +13°C° 0 mm 1 mps 749 mmHg 59%
    05:00 +13°C° 0 mm 1 mps 748 mmHg 60%
    06:00 +13°C° 0 mm 1 mps 748 mmHg 60%
    07:00 +14°C° 0 mm 1 mps 748 mmHg 57%
    08:00 +16°C° 0 mm 1 mps 748 mmHg 53%
    09:00 +18°C° 0 mm 1 mps 748 mmHg 50%
    10:00 +17°C° 0 mm 2 mps 747 mmHg 50%
    11:00 +18°C° 0 mm 2 mps 747 mmHg 50%
    12:00 +19°C° 0 mm 2 mps 747 mmHg 50%
    13:00 +19°C° 0 mm 2 mps 746 mmHg 46%
    14:00 +20°C° 0 mm 2 mps 746 mmHg 42%
    15:00 +21°C° 0 mm 2 mps 745 mmHg 38%
    16:00 +21°C° 0 mm 2 mps 745 mmHg 40%
    17:00 +20°C° 0 mm 2 mps 745 mmHg 42%
    18:00 +20°C° 0 mm 2 mps 744 mmHg 44%
    19:00 +18°C° 0 mm 2 mps 744 mmHg 48%
    20:00 +17°C° 0 mm 2 mps 744 mmHg 51%
    21:00 +15°C° 0 mm 2 mps 744 mmHg 55%
    22:00 +14°C° 0 mm 3 mps 743 mmHg 56%
    23:00 +14°C° 0 mm 3 mps 743 mmHg 58%

    Day after tomorrow, 28 April, Sunday

    Time Temperature Precipitation Wind Pressure Humidity
    00:00 +13°C° 0 mm 4 mps 743 mmHg 59%
    01:00 +13°C° 0 mm 4 mps 742 mmHg 64%
    02:00 +12°C° 0 mm 3 mps 742 mmHg 69%
    03:00 +12°C° 0 mm 3 mps 741 mmHg 74%
    04:00 +12°C° 0.1 mm 4 mps 741 mmHg 74%
    05:00 +12°C° 0.1 mm 4 mps 741 mmHg 75%
    06:00 +12°C° 0.1 mm 4 mps 740 mmHg 75%
    07:00 +13°C° 0.3 mm 5 mps 740 mmHg 72%
    08:00 +15°C° 0.3 mm 5 mps 741 mmHg 69%
    09:00 +16°C° 0.3 mm 5 mps 741 mmHg 66%
    10:00 +15°C° 0.9 mm 6 mps 741 mmHg 68%
    11:00 +15°C° 0.9 mm 6 mps 741 mmHg 70%
    12:00 +14°C° 0.9 mm 7 mps 741 mmHg 72%
    13:00 +11°C° 0.1 mm 7 mps 742 mmHg 72%
    14:00 +10°C° 0.1 mm 7 mps 743 mmHg 71%
    15:00 +8°C° 0.1 mm 7 mps 743 mmHg 71%
    16:00 +8°C° 0 mm 7 mps 744 mmHg 68%
    17:00 +8°C° 0 mm 7 mps 744 mmHg 64%
    18:00 +6°C° 0 mm 7 mps 745 mmHg 60%
    19:00 +5°C° 0 mm 6 mps 745 mmHg 60%
    20:00 +4°C° 0 mm 6 mps 746 mmHg 61%
    21:00 +3°C° 0 mm 5 mps 747 mmHg 61%
    22:00 +3°C° 0 mm 5 mps 747 mmHg 62%
    23:00 +2°C° 0 mm 5 mps 748 mmHg 62%

    29 April, Monday

    Time Temperature Precipitation Wind Pressure Humidity
    00:00 +2°C° 0 mm 5 mps 748 mmHg 63%
    01:00 +1°C° 0 mm 5 mps 748 mmHg 65%
    02:00 +1°C° 0 mm 4 mps 749 mmHg 67%
    03:00 0°C° 0 mm 4 mps 749 mmHg 69%
    04:00 0°C° 0 mm 4 mps 749 mmHg 67%
    05:00 0°C° 0 mm 4 mps 750 mmHg 66%
    06:00 0°C° 0 mm 5 mps 750 mmHg 64%
    07:00 +1°C° 0 mm 5 mps 750 mmHg 55%
    08:00 +2°C° 0 mm 5 mps 751 mmHg 45%
    09:00 +3°C° 0 mm 6 mps 751 mmHg 36%
    10:00 +5°C° 0 mm 5 mps 751 mmHg 35%
    11:00 +6°C° 0 mm 5 mps 751 mmHg 34%
    12:00 +7°C° 0 mm 4 mps 751 mmHg 32%
    13:00 +7°C° 0 mm 4 mps 751 mmHg 33%
    14:00 +7°C° 0 mm 4 mps 751 mmHg 33%
    15:00 +8°C° 0 mm 4 mps 751 mmHg 33%
    16:00 +7°C° 0 mm 4 mps 751 mmHg 36%
    17:00 +7°C° 0 mm 4 mps 751 mmHg 39%
    18:00 +6°C° 0 mm 4 mps 751 mmHg 41%
    19:00 +5°C° 0 mm 3 mps 751 mmHg 46%
    20:00 +4°C° 0 mm 3 mps 751 mmHg 50%
    21:00 +4°C° 0 mm 2 mps 752 mmHg 54%
    22:00 +3°C° 0 mm 2 mps 752 mmHg 55%
    23:00 +3°C° 0 mm 2 mps 752 mmHg 56%

    30 April, Tuesday

    Time Temperature Precipitation Wind Pressure Humidity
    00:00 +2°C° 0 mm 2 mps 752 mmHg 56%
    01:00 +3°C° 0 mm 1 mps 752 mmHg 58%
    02:00 +2°C° 0 mm 1 mps 752 mmHg 59%
    03:00 +2°C° 0 mm 1 mps 752 mmHg 60%
    04:00 +2°C° 0 mm 1 mps 752 mmHg 59%
    05:00 +3°C° 0 mm 1 mps 752 mmHg 58%
    06:00 +3°C° 0 mm 1 mps 752 mmHg 57%
    07:00 +5°C° 0 mm 1 mps 752 mmHg 52%
    08:00 +6°C° 0 mm 1 mps 752 mmHg 47%
    09:00 +8°C° 0 mm 1 mps 751 mmHg 42%
    10:00 +8°C° 0 mm 0 mps 751 mmHg 40%
    11:00 +9°C° 0 mm 0 mps 751 mmHg 38%
    12:00 +10°C° 0 mm 0 mps 751 mmHg 36%
    13:00 +9°C° 0 mm 0 mps 750 mmHg 36%
    14:00 +10°C° 0 mm 1 mps 750 mmHg 37%
    15:00 +10°C° 0 mm 1 mps 749 mmHg 37%
    16:00 +10°C° 0 mm 1 mps 749 mmHg 37%
    17:00 +10°C° 0 mm 1 mps 749 mmHg 37%
    18:00 +9°C° 0 mm 0 mps 748 mmHg 37%
    19:00 +10°C° 0 mm 1 mps 748 mmHg 39%
    20:00 +9°C° 0 mm 1 mps 748 mmHg 42%
    21:00 +7°C° 0 mm 2 mps 748 mmHg 44%
    22:00 +7°C° 0 mm 2 mps 748 mmHg 44%
    23:00 +7°C° 0 mm 2 mps 748 mmHg 45%

    1 May, Wednesday

    Time Temperature Precipitation Wind Pressure Humidity
    00:00 +7°C° 0 mm 2 mps 748 mmHg 45%
    01:00 +7°C° 0 mm 2 mps 748 mmHg 46%
    02:00 +6°C° 0 mm 2 mps 748 mmHg 48%
    03:00 +6°C° 0 mm 2 mps 748 mmHg 50%
    04:00 +6°C° 0 mm 2 mps 748 mmHg 54%
    05:00 +6°C° 0 mm 2 mps 747 mmHg 58%
    06:00 +6°C° 0 mm 2 mps 747 mmHg 62%
    07:00 +7°C° 0 mm 2 mps 747 mmHg 56%
    08:00 +8°C° 0 mm 3 mps 747 mmHg 51%
    09:00 +9°C° 0 mm 3 mps 747 mmHg 45%
    10:00 +10°C° 0 mm 3 mps 747 mmHg 43%
    11:00 +10°C° 0 mm 4 mps 747 mmHg 42%
    12:00 +11°C° 0 mm 4 mps 746 mmHg 40%
    13:00 +11°C° 0 mm 4 mps 746 mmHg 41%
    14:00 +10°C° 0 mm 5 mps 746 mmHg 42%
    15:00 +10°C° 0 mm 5 mps 746 mmHg 44%
    16:00 +10°C° 0.1 mm 4 mps 745 mmHg 48%
    17:00 +8°C° 0.1 mm 4 mps 745 mmHg 53%
    18:00 +7°C° 0.1 mm 4 mps 745 mmHg 57%
    19:00 +7°C° 0.1 mm 4 mps 745 mmHg 61%
    20:00 +6°C° 0.1 mm 4 mps 744 mmHg 64%
    21:00 +6°C° 0.1 mm 4 mps 744 mmHg 67%
    22:00 +6°C° 0 mm 4 mps 744 mmHg 70%
    23:00 +6°C° 0 mm 5 mps 743 mmHg 73%
    Show more